Location: Quedlinburg
(51.7921°N, 11.1414°E)
Time: 09:31:02
(UTC+02:00)

RS-44 - Pass Details

Date: 19 March 2026
Orbit: 1175 x 1510 km, 82.5° (Epoch: 17 April)

Event Time Altitude Azimuth Distance (km) Brightness Sun altitude
Rises 00:02:30 0° 349° (N) 4,385 ? -38.7°
Reaches altitude 10° 00:06:09 10° 4° (N) 3,467 ? -38.7°
Maximum altitude 00:12:18 22° 53° (NE) 2,736 ? -38.8°
Enters shadow 00:16:33 16° 88° (E) 3,174 ? -38.8°
